WGS F3 (USA 211)

Last updated on Tue Sep 22 2026 00:03:11 GMT+0000 (Coordinated Universal Time)

1 36108U 09068A 26264.49269061 .00000017 00000+0 00000+0 0 9994 2 36108 0.3062 84.9411 0000512 44.0770 286.4664 1.00273608 47552
UTC large
Height (km)
Speed (km/s)
/
Latitude / Longitude
Inclination (degrees)
Orbital Period (minutes)
Azimuth
Elevation
Range (km)
Doppler Factor

Next 0 passes for location: London (51.5072 / 0.1276)

No passes found over London.
WGS F3 (USA 211)